Regional Weather Roundup
Issued by NWS

Home | Current Version | Previous Version | Graphics & Text | Print | Product List | Glossary On
Versions: 1 2 3 4 5 6 7 8 9 10 11 12 13 14 15 16 17 18 19 20 21 22 23 24 25 26 27 28 29 30 31 32 33 34 35 36 37 38 39 40 41 42 43 44 45 46 47 48 49 50
000
ASUS43 KLMK 221602
RWRKY
KENTUCKY REGIONAL WEATHER ROUNDUP
NATIONAL WEATHER SERVICE LOUISVILLE KY
1100 AM EST WED FEB 22 2017

NOTE "FAIR" INDICATES FEW OR NO CLOUDS BELOW 12,000 FEET
WITH NO SIGNIFICANT WEATHER AND/OR OBSTRUCTIONS TO VISIBILITY.

KYZ001>023-026-027-061>063-070>075-221700-
WESTERN AND SOUTH CENTRAL KENTUCKY

CITY           SKY/WX    TMP DP  RH WIND       PRES   REMARKS
PADUCAH        CLOUDY    61  57  87 SE3       29.89F
HENDERSON      CLOUDY    64  55  72 SW3       29.89F
OWENSBORO      PTSUNNY   63  58  83 S6        29.91F
HOPKINSVILLE   CLOUDY    61  59  93 CALM      29.91S
BOWLING GREEN  PTSUNNY   63  58  83 MISG      29.91F
GLASGOW        NOT AVBL
$$

KYZ024-025-028>034-038-045-046-053-221700-
NORTH CENTRAL KENTUCKY

CITY           SKY/WX    TMP DP  RH WIND       PRES   REMARKS
LOUISVILLE/SDF CLOUDY    65  55  70 S7        29.91F
LOUISVILLE/LOU CLOUDY    62  54  74 S7        29.92F
FORT KNOX      CLOUDY    61  58  90 S6        29.90F
$$

KYZ035>037-039>044-047>052-055>060-089>105-221700-
NORTHEAST KENTUCKY

CITY           SKY/WX    TMP DP  RH WIND       PRES   REMARKS
LEXINGTON      CLOUDY    60  55  83 S10       29.94F
COVINGTON      CLOUDY    58  57  97 S9        29.91F FOG
FRANKFORT      CLOUDY    60  54  80 S9        29.92F
$$

KYZ054-064>069-076>088-106>120-221700-
SOUTHEAST KENTUCKY

CITY           SKY/WX    TMP DP  RH WIND       PRES   REMARKS
JACKSON        LGT RAIN  53  52  96 CALM      29.97S VSB 1/4
LONDON         CLOUDY    55  52  89 SE3       29.97S
SOMERSET       CLOUDY    55  55 100 CALM      29.97F
MIDDLESBORO    LGT RAIN  55  53  94 CALM      29.99S
MONTICELLO     CLOUDY    57  55  93 VRB3      29.97F
$$




USA.gov is the U.S. government's official web portal to all federal, state and local government web resources and services.